STARLINK-34307 (64489 NORAD) Tracking and Keplerian Element Data

This shows tracking and keplerian element data for the satellite.

Feedback or suggestion? Click here.




ElementValue
Catalog64489
NameSTARLINK-34307
Epoch Orbit2877
Epoch Day352.74378817
Epoch Year2025
RAAN132.8972
Inclination53.1586
Eccentricity4.41E-05
Argument of Perigee62.0301
Mean Anonmoly298.0744
Mean Motion15.30211183
Decay Rate0.00013512
L11 64489U 25133T 25352.74378817 .00013512 00000+0 46734-3 0 9995
L22 64489 53.1586 132.8972 0000441 62.0301 298.0744 15.30211183 28777



Live tracking and technical data element details for STARLINK-34307 (NORAD 64489). STARLINK-34307 can be tracked NOW for your location showing map with azimuth and elevation plus other details from your city location.







IsCatalogInMostPopularTable: catalog: 64489, numindb: 2
Update: records affected: 1



GetName: 64489 STARLINK-34307

Hit Count: updated at: Sat, 07 Feb 2026 08:11:44 GMT